Location: Observatory
(52.1446°N, 0.4624°W)
Time: 05:17:43
(UTC+01:00)

ISS - Pass Details

Date: 01 April 2019
Orbit: 408 x 410 km, 51.6° (Epoch: 20 April)

Event Time Altitude Azimuth Distance (km) Brightness Sun altitude
Rises 22:20:27 0° 282° (WNW) 2,340 0.9 -23.3°
Reaches altitude 10° 22:22:46 10° 268° (W) 1,475 -0.5 -23.5°
Enters shadow 22:24:03 18° 250° (WSW) 1,092 -1.4 -23.6°
